User: anonymous   Login
Location: Étavigny
(49.1201°N, 2.9800°E)
Time: 13:53:21
(UTC+00:00)
Language:

Star 26B S/N 008 - Orbit

View from above orbital plane
View from above orbital plane
View from above satellite
View from above satellite

Ground track
Ground track

The orbit data is extracted from the following two-line orbital elements,

1  7817U 75043B   24194.18407776  .00000139  00000-0  85924-4 0  9997
2  7817  98.7416  40.3167 0053112 342.5406  17.3943 14.19475152263363
Epoch (UTC): 12 July 2024 04:25:04
Eccentricity: 0.0053112
inclination: 98.7416°
perigee height: 789 km
apogee height: 865 km
right ascension of ascending node: 40.3167°
argument of perigee: 342.5406°
revolutions per day: 14.19475152
mean anomaly at epoch: 17.3943°
orbit number at epoch: 26336

The dashed part of the orbit path shows where the satellite is in the earth's shadow,  

DLR